TimeCDT,TemperatureF,Dew PointF,Humidity,Sea Level PressureIn,VisibilityMPH,Wind Direction,Wind SpeedMPH,Gust SpeedMPH,PrecipitationIn,Events,Conditions,WindDirDegrees,DateUTC
12:53 AM,66.0,64.9,96,29.88,10.0,Calm,Calm,-,N/A,,Overcast,0,2013-05-02 05:53:00
1:53 AM,66.0,66.0,100,29.87,9.0,NNE,3.5,-,N/A,,Overcast,30,2013-05-02 06:53:00
2:40 AM,66.2,64.4,94,29.85,10.0,Calm,Calm,-,N/A,,Overcast,0,2013-05-02 07:40:00
2:53 AM,64.9,64.9,100,29.86,10.0,Calm,Calm,-,N/A,,Scattered Clouds,0,2013-05-02 07:53:00
3:03 AM,64.4,64.4,100,29.86,9.0,NNE,3.5,-,N/A,,Mostly Cloudy,30,2013-05-02 08:03:00
3:16 AM,64.4,64.4,100,29.85,9.0,NNE,4.6,-,N/A,,Mostly Cloudy,20,2013-05-02 08:16:00
3:26 AM,64.4,64.4,100,29.85,9.0,North,4.6,-,N/A,,Mostly Cloudy,10,2013-05-02 08:26:00
3:53 AM,64.9,64.0,97,29.87,8.0,Calm,Calm,-,N/A,,Overcast,0,2013-05-02 08:53:00
4:21 AM,64.4,64.4,100,29.88,8.0,NW,3.5,-,N/A,,Overcast,320,2013-05-02 09:21:00
4:53 AM,64.9,64.9,100,29.90,8.0,North,3.5,-,N/A,,Overcast,360,2013-05-02 09:53:00
5:53 AM,64.9,64.9,100,29.88,6.0,North,5.8,-,N/A,,Overcast,360,2013-05-02 10:53:00
6:53 AM,66.0,64.9,96,29.92,5.0,Calm,Calm,-,N/A,,Overcast,0,2013-05-02 11:53:00
7:04 AM,66.2,64.4,94,29.92,5.0,Calm,Calm,-,N/A,,Overcast,0,2013-05-02 12:04:00
7:53 AM,66.0,64.9,96,29.93,8.0,NNE,4.6,-,N/A,,Overcast,20,2013-05-02 12:53:00
8:53 AM,68.0,66.0,93,29.94,10.0,NE,6.9,-,N/A,,Overcast,40,2013-05-02 13:53:00
9:38 AM,69.8,66.2,88,29.94,10.0,ENE,8.1,-,N/A,,Overcast,70,2013-05-02 14:38:00
9:53 AM,69.1,66.0,90,29.94,10.0,East,6.9,-,N/A,,Overcast,100,2013-05-02 14:53:00
10:53 AM,71.1,66.9,87,29.94,10.0,East,10.4,18.4,N/A,,Overcast,90,2013-05-02 15:53:00
11:44 AM,71.6,66.2,83,29.94,10.0,East,11.5,16.1,N/A,,Overcast,80,2013-05-02 16:44:00
11:53 AM,71.1,66.0,84,29.95,10.0,East,11.5,-,N/A,,Overcast,80,2013-05-02 16:53:00
12:53 PM,73.9,66.9,79,29.92,10.0,East,9.2,19.6,N/A,,Mostly Cloudy,90,2013-05-02 17:53:00
1:53 PM,73.0,66.9,81,29.91,10.0,East,6.9,-,N/A,,Overcast,80,2013-05-02 18:53:00
2:53 PM,73.0,66.0,79,29.92,10.0,ESE,9.2,19.6,N/A,,Overcast,110,2013-05-02 19:53:00
3:42 PM,73.4,66.2,78,29.90,10.0,East,9.2,-,N/A,,Overcast,80,2013-05-02 20:42:00
3:53 PM,75.0,66.9,76,29.91,10.0,ESE,8.1,-,N/A,,Overcast,110,2013-05-02 20:53:00
4:53 PM,73.9,66.0,76,29.89,10.0,ESE,6.9,-,N/A,,Mostly Cloudy,120,2013-05-02 21:53:00
5:53 PM,73.9,66.0,76,29.90,10.0,ESE,6.9,-,N/A,,Partly Cloudy,110,2013-05-02 22:53:00
6:53 PM,72.0,66.0,81,29.91,10.0,ESE,4.6,-,N/A,,Scattered Clouds,110,2013-05-02 23:53:00
7:53 PM,70.0,66.0,87,29.93,10.0,ENE,3.5,-,N/A,,Mostly Cloudy,70,2013-05-03 00:53:00
8:53 PM,69.1,66.0,90,29.93,10.0,Calm,Calm,-,N/A,,Scattered Clouds,0,2013-05-03 01:53:00
9:53 PM,68.0,64.9,90,29.94,10.0,NE,3.5,-,N/A,,Mostly Cloudy,40,2013-05-03 02:53:00
10:53 PM,66.9,64.9,93,29.95,10.0,Calm,Calm,-,N/A,,Mostly Cloudy,0,2013-05-03 03:53:00
11:53 PM,66.0,64.9,96,29.93,10.0,Calm,Calm,-,N/A,,Overcast,0,2013-05-03 04:53:00